Time,TemperatureF,DewpointF,PressureIn,WindDirection,WindDirectionDegrees,WindSpeedMPH,WindSpeedGustMPH,Humidity,HourlyPrecipIn,Conditions,Clouds,dailyrainin,SoftwareType,DateUTC
2013-04-24 00:01:00,44.6,37.2,30.02,East,90,0.2,0.2,75,0.00,CLR,,0.00,WeatherDisplay:10.37,2013-04-24 04:01:00,
2013-04-24 00:06:00,44.2,37.2,30.01,East,90,0.0,0.0,76,0.00,CLR,,0.00,WeatherDisplay:10.37,2013-04-24 04:06:00,
2013-04-24 00:11:00,44.1,37.0,30.01,North,0,0.0,0.0,76,0.00,CLR,,0.00,WeatherDisplay:10.37,2013-04-24 04:11:00,
2013-04-24 00:16:00,43.9,37.1,30.01,ENE,68,0.0,0.0,77,0.00,CLR,,0.00,WeatherDisplay:10.37,2013-04-24 04:16:00,
2013-04-24 00:21:00,43.7,37.0,30.01,East,90,0.5,0.5,77,0.00,CLR,,0.00,WeatherDisplay:10.37,2013-04-24 04:21:00,
2013-04-24 00:26:00,43.5,36.8,30.00,East,90,0.5,0.5,77,0.00,CLR,,0.00,WeatherDisplay:10.37,2013-04-24 04:26:00,
2013-04-24 00:31:00,43.5,37.1,30.00,ENE,68,0.0,0.0,78,0.00,CLR,,0.00,WeatherDisplay:10.37,2013-04-24 04:31:00,
2013-04-24 00:36:00,43.3,36.9,30.00,ENE,68,0.0,0.0,78,0.00,CLR,,0.00,WeatherDisplay:10.37,2013-04-24 04:36:00,
2013-04-24 00:41:00,43.2,36.8,30.00,ENE,68,0.0,0.0,78,0.00,CLR,,0.00,WeatherDisplay:10.37,2013-04-24 04:41:00,
2013-04-24 00:46:00,43.2,36.8,29.99,ENE,68,0.0,0.0,78,0.00,CLR,,0.00,WeatherDisplay:10.37,2013-04-24 04:46:00,
2013-04-24 00:51:00,43.2,36.8,29.99,ENE,68,0.0,0.0,78,0.00,CLR,,0.00,WeatherDisplay:10.37,2013-04-24 04:51:00,
2013-04-24 00:56:00,43.0,36.6,29.99,SSW,202,0.0,0.0,78,0.00,CLR,,0.00,WeatherDisplay:10.37,2013-04-24 04:56:00,
2013-04-24 01:01:00,43.0,36.9,29.99,ENE,68,0.0,0.0,79,0.00,CLR,,0.00,WeatherDisplay:10.37,2013-04-24 05:01:00,
2013-04-24 01:06:00,42.8,36.7,29.99,ENE,68,0.0,0.0,79,0.00,CLR,,0.00,WeatherDisplay:10.37,2013-04-24 05:06:00,
2013-04-24 01:11:00,42.6,36.6,29.98,ENE,68,0.0,0.0,79,0.00,CLR,,0.00,WeatherDisplay:10.37,2013-04-24 05:11:00,
2013-04-24 01:16:00,42.6,36.6,29.98,SW,225,0.0,0.0,79,0.00,CLR,,0.00,WeatherDisplay:10.37,2013-04-24 05:16:00,
2013-04-24 01:21:00,42.4,36.4,29.98,SW,225,0.0,0.0,79,0.00,CLR,,0.00,WeatherDisplay:10.37,2013-04-24 05:21:00,
2013-04-24 01:26:00,42.3,36.2,29.98,SW,225,0.0,0.0,79,0.00,CLR,,0.00,WeatherDisplay:10.37,2013-04-24 05:26:00,
2013-04-24 01:31:00,42.1,36.0,29.98,East,90,0.0,0.0,79,0.00,CLR,,0.00,WeatherDisplay:10.37,2013-04-24 05:31:00,
2013-04-24 01:36:00,41.9,36.2,29.98,East,90,0.0,0.0,80,0.00,CLR,,0.00,WeatherDisplay:10.37,2013-04-24 05:36:00,
2013-04-24 01:41:00,41.7,36.0,29.97,East,90,0.0,0.0,80,0.00,CLR,,0.00,WeatherDisplay:10.37,2013-04-24 05:41:00,
2013-04-24 01:46:00,41.5,35.8,29.97,East,90,0.0,0.0,80,0.00,CLR,,0.00,WeatherDisplay:10.37,2013-04-24 05:46:00,
2013-04-24 01:51:00,41.5,35.8,29.97,East,90,0.0,0.0,80,0.00,CLR,,0.00,WeatherDisplay:10.37,2013-04-24 05:51:00,
2013-04-24 01:56:00,41.4,35.7,29.97,East,90,0.0,0.0,80,0.00,CLR,,0.00,WeatherDisplay:10.37,2013-04-24 05:56:00,
2013-04-24 02:01:00,41.4,36.0,29.97,East,90,0.0,0.0,81,0.00,CLR,,0.00,WeatherDisplay:10.37,2013-04-24 06:01:00,
2013-04-24 02:06:00,41.4,36.0,29.97,East,90,0.0,0.0,81,0.00,CLR,,0.00,WeatherDisplay:10.37,2013-04-24 06:06:00,
2013-04-24 02:11:00,41.2,35.8,29.97,East,90,0.0,0.0,81,0.00,CLR,,0.00,WeatherDisplay:10.37,2013-04-24 06:11:00,
2013-04-24 02:16:00,41.0,35.6,29.96,East,90,0.0,0.0,81,0.00,CLR,,0.00,WeatherDisplay:10.37,2013-04-24 06:16:00,
2013-04-24 02:21:00,40.8,35.4,29.96,East,90,0.0,0.0,81,0.00,CLR,,0.00,WeatherDisplay:10.37,2013-04-24 06:21:00,
2013-04-24 02:26:00,40.8,35.4,29.97,East,90,0.0,0.0,81,0.00,CLR,,0.00,WeatherDisplay:10.37,2013-04-24 06:26:00,
2013-04-24 02:31:00,40.8,35.7,29.97,East,90,0.0,0.0,82,0.00,CLR,,0.00,WeatherDisplay:10.37,2013-04-24 06:31:00,
2013-04-24 02:36:00,40.8,35.7,29.97,East,90,0.0,0.0,82,0.00,CLR,,0.00,WeatherDisplay:10.37,2013-04-24 06:36:00,
2013-04-24 02:41:00,40.6,35.6,29.97,East,90,0.0,0.0,82,0.00,CLR,,0.00,WeatherDisplay:10.37,2013-04-24 06:41:00,
2013-04-24 02:46:00,40.6,35.6,29.97,East,90,0.0,0.0,82,0.00,CLR,,0.00,WeatherDisplay:10.37,2013-04-24 06:46:00,
2013-04-24 02:51:00,40.6,35.6,29.96,East,90,0.0,0.0,82,0.00,CLR,,0.00,WeatherDisplay:10.37,2013-04-24 06:51:00,
2013-04-24 02:56:00,40.6,35.6,29.96,East,90,0.0,0.0,82,0.00,CLR,,0.00,WeatherDisplay:10.37,2013-04-24 06:56:00,
2013-04-24 03:01:00,40.5,35.4,29.96,East,90,0.0,0.0,82,0.00,CLR,,0.00,WeatherDisplay:10.37,2013-04-24 07:01:00,
2013-04-24 03:06:00,40.5,35.4,29.96,East,90,0.0,0.0,82,0.00,CLR,,0.00,WeatherDisplay:10.37,2013-04-24 07:06:00,
2013-04-24 03:11:00,40.3,35.5,29.96,East,90,0.0,0.2,83,0.00,CLR,,0.00,WeatherDisplay:10.37,2013-04-24 07:11:00,
2013-04-24 03:16:00,40.3,35.2,29.95,East,90,0.5,0.5,82,0.00,CLR,,0.00,WeatherDisplay:10.37,2013-04-24 07:16:00,
2013-04-24 03:21:00,40.3,35.2,29.95,East,90,0.0,0.0,82,0.00,CLR,,0.00,WeatherDisplay:10.37,2013-04-24 07:21:00,
2013-04-24 03:26:00,40.3,35.2,29.95,East,90,0.0,0.0,82,0.00,CLR,,0.00,WeatherDisplay:10.37,2013-04-24 07:26:00,
2013-04-24 03:31:00,40.1,35.0,29.95,East,90,0.5,0.5,82,0.00,CLR,,0.00,WeatherDisplay:10.37,2013-04-24 07:31:00,
2013-04-24 03:36:00,40.1,35.4,29.95,East,90,0.0,0.0,83,0.00,CLR,,0.00,WeatherDisplay:10.37,2013-04-24 07:36:00,
2013-04-24 03:41:00,39.9,35.2,29.95,East,90,0.0,0.0,83,0.00,CLR,,0.00,WeatherDisplay:10.37,2013-04-24 07:41:00,
2013-04-24 03:46:00,39.9,34.9,29.95,East,90,0.0,0.0,82,0.00,CLR,,0.00,WeatherDisplay:10.37,2013-04-24 07:46:00,
2013-04-24 03:51:00,39.9,34.9,29.94,East,90,0.0,0.0,82,0.00,CLR,,0.00,WeatherDisplay:10.37,2013-04-24 07:51:00,
2013-04-24 03:56:00,39.7,34.7,29.95,East,90,0.0,0.0,82,0.00,CLR,,0.00,WeatherDisplay:10.37,2013-04-24 07:56:00,
2013-04-24 04:01:00,39.6,34.5,29.94,East,90,0.0,0.0,82,0.00,CLR,,0.00,WeatherDisplay:10.37,2013-04-24 08:01:00,
2013-04-24 04:06:00,39.6,34.5,29.95,East,90,0.0,0.0,82,0.00,CLR,,0.00,WeatherDisplay:10.37,2013-04-24 08:06:00,
2013-04-24 04:11:00,39.4,34.3,29.95,East,90,0.0,0.0,82,0.00,CLR,,0.00,WeatherDisplay:10.37,2013-04-24 08:11:00,
2013-04-24 04:16:00,39.4,34.3,29.95,East,90,0.0,0.0,82,0.00,CLR,,0.00,WeatherDisplay:10.37,2013-04-24 08:16:00,
2013-04-24 04:21:00,39.4,34.6,29.95,East,90,0.0,0.0,83,0.00,CLR,,0.00,WeatherDisplay:10.37,2013-04-24 08:21:00,
2013-04-24 04:26:00,39.2,34.5,29.95,East,90,0.0,0.0,83,0.00,CLR,,0.00,WeatherDisplay:10.37,2013-04-24 08:26:00,
2013-04-24 04:31:00,39.2,34.5,29.95,East,90,0.0,0.0,83,0.00,CLR,,0.00,WeatherDisplay:10.37,2013-04-24 08:31:00,
2013-04-24 04:36:00,39.0,34.3,29.95,East,90,0.0,0.0,83,0.00,CLR,,0.00,WeatherDisplay:10.37,2013-04-24 08:36:00,
2013-04-24 04:41:00,39.0,34.3,29.95,WSW,248,0.0,0.0,83,0.00,CLR,,0.00,WeatherDisplay:10.37,2013-04-24 08:41:00,
2013-04-24 04:46:00,38.8,34.1,29.95,SSW,202,0.0,0.0,83,0.00,CLR,,0.00,WeatherDisplay:10.37,2013-04-24 08:46:00,
2013-04-24 04:51:00,38.8,34.1,29.95,SSW,202,0.0,0.0,83,0.00,CLR,,0.00,WeatherDisplay:10.37,2013-04-24 08:51:00,
2013-04-24 04:56:00,38.8,34.4,29.95,SSW,202,0.0,0.0,84,0.00,CLR,,0.00,WeatherDisplay:10.37,2013-04-24 08:56:00,
2013-04-24 05:01:00,38.7,34.2,29.95,SSW,202,0.0,0.0,84,0.00,CLR,,0.00,WeatherDisplay:10.37,2013-04-24 09:01:00,
2013-04-24 05:06:00,38.7,34.2,29.94,ESE,112,0.0,0.0,84,0.00,CLR,,0.00,WeatherDisplay:10.37,2013-04-24 09:06:00,
2013-04-24 05:11:00,38.7,34.2,29.94,ESE,112,0.0,0.0,84,0.00,CLR,,0.00,WeatherDisplay:10.37,2013-04-24 09:11:00,
2013-04-24 05:16:00,38.7,34.2,29.95,ESE,112,0.2,0.2,84,0.00,CLR,,0.00,WeatherDisplay:10.37,2013-04-24 09:16:00,
2013-04-24 05:21:00,38.7,34.2,29.95,ESE,112,0.0,0.0,84,0.00,CLR,,0.00,WeatherDisplay:10.37,2013-04-24 09:21:00,
2013-04-24 05:26:00,38.7,34.2,29.95,ESE,112,0.0,0.0,84,0.00,CLR,,0.00,WeatherDisplay:10.37,2013-04-24 09:26:00,
2013-04-24 05:31:00,38.7,34.2,29.95,ESE,112,0.0,0.0,84,0.00,CLR,,0.00,WeatherDisplay:10.37,2013-04-24 09:31:00,
2013-04-24 05:36:00,38.5,34.1,29.95,ESE,112,0.0,0.0,84,0.00,CLR,,0.00,WeatherDisplay:10.37,2013-04-24 09:36:00,
2013-04-24 05:41:00,38.5,34.1,29.95,ESE,112,0.0,0.0,84,0.00,CLR,,0.00,WeatherDisplay:10.37,2013-04-24 09:41:00,
2013-04-24 05:46:00,38.3,33.9,29.95,ESE,112,0.0,0.0,84,0.00,CLR,,0.00,WeatherDisplay:10.37,2013-04-24 09:46:00,
2013-04-24 05:51:00,38.1,33.7,29.95,ESE,112,0.0,0.0,84,0.00,CLR,,0.00,WeatherDisplay:10.37,2013-04-24 09:51:00,
2013-04-24 05:56:00,38.1,33.7,29.95,ESE,112,0.0,0.0,84,0.00,CLR,,0.00,WeatherDisplay:10.37,2013-04-24 09:56:00,
2013-04-24 06:01:00,38.3,34.2,29.95,ESE,112,0.0,0.0,85,0.00,CLR,,0.00,WeatherDisplay:10.37,2013-04-24 10:01:00,
2013-04-24 06:06:00,38.1,34.0,29.95,ESE,112,0.0,0.0,85,0.00,CLR,,0.00,WeatherDisplay:10.37,2013-04-24 10:06:00,
2013-04-24 06:11:00,38.1,34.0,29.96,ESE,112,0.0,0.0,85,0.00,CLR,,0.00,WeatherDisplay:10.37,2013-04-24 10:11:00,
2013-04-24 06:16:00,38.1,34.0,29.96,ESE,112,0.0,0.0,85,0.00,CLR,,0.00,WeatherDisplay:10.37,2013-04-24 10:16:00,
2013-04-24 06:21:00,38.1,34.0,29.97,ESE,112,0.0,0.0,85,0.00,CLR,,0.00,WeatherDisplay:10.37,2013-04-24 10:21:00,
2013-04-24 06:26:00,38.1,34.0,29.97,ESE,112,0.0,0.0,85,0.00,CLR,,0.00,WeatherDisplay:10.37,2013-04-24 10:26:00,
2013-04-24 06:31:00,38.1,34.0,29.97,ESE,112,0.9,0.9,85,0.00,CLR,,0.00,WeatherDisplay:10.37,2013-04-24 10:31:00,
2013-04-24 06:36:00,38.3,34.5,29.97,ESE,112,1.1,0.0,86,0.00,CLR,,0.00,WeatherDisplay:10.37,2013-04-24 10:36:00,
2013-04-24 06:41:00,38.3,34.5,29.97,ESE,112,0.0,0.2,86,0.00,CLR,,0.00,WeatherDisplay:10.37,2013-04-24 10:41:00,
2013-04-24 06:47:00,38.5,34.7,29.96,ESE,112,0.5,0.5,86,0.00,CLR,,0.00,WeatherDisplay:10.37,2013-04-24 10:47:00,
2013-04-24 06:52:00,38.5,34.7,29.96,ESE,112,0.2,0.2,86,0.00,CLR,,0.00,WeatherDisplay:10.37,2013-04-24 10:52:00,
2013-04-24 06:57:00,38.8,35.3,29.96,ESE,112,0.0,0.0,87,0.00,CLR,,0.00,WeatherDisplay:10.37,2013-04-24 10:57:00,
2013-04-24 07:02:00,39.2,35.7,29.96,ESE,112,0.5,0.5,87,0.00,CLR,,0.00,WeatherDisplay:10.37,2013-04-24 11:02:00,
2013-04-24 07:07:00,39.2,35.7,29.96,ESE,112,0.0,0.0,87,0.00,CLR,,0.00,WeatherDisplay:10.37,2013-04-24 11:07:00,
2013-04-24 07:12:00,39.4,35.8,29.96,ESE,112,0.0,0.0,87,0.00,CLR,,0.00,WeatherDisplay:10.37,2013-04-24 11:12:00,
2013-04-24 07:17:00,39.4,35.8,29.97,ESE,112,0.0,0.0,87,0.00,CLR,,0.00,WeatherDisplay:10.37,2013-04-24 11:17:00,
2013-04-24 07:22:00,39.4,35.8,29.97,ESE,112,0.0,0.0,87,0.00,CLR,,0.00,WeatherDisplay:10.37,2013-04-24 11:22:00,
2013-04-24 07:27:00,40.3,36.7,29.97,SW,225,0.2,0.2,87,0.00,CLR,,0.00,WeatherDisplay:10.37,2013-04-24 11:27:00,
2013-04-24 07:32:00,40.6,37.1,29.97,NW,315,0.0,0.0,87,0.00,CLR,,0.00,WeatherDisplay:10.37,2013-04-24 11:32:00,
2013-04-24 07:37:00,41.4,37.8,29.97,WNW,292,0.0,0.0,87,0.00,CLR,,0.00,WeatherDisplay:10.37,2013-04-24 11:37:00,
2013-04-24 07:42:00,41.5,38.0,29.97,WSW,248,1.1,0.0,87,0.00,CLR,,0.00,WeatherDisplay:10.37,2013-04-24 11:42:00,
2013-04-24 07:47:00,42.1,38.2,29.97,WSW,248,0.5,0.5,86,0.00,CLR,,0.00,WeatherDisplay:10.37,2013-04-24 11:47:00,
2013-04-24 07:52:00,42.4,38.2,29.97,ENE,68,0.0,0.0,85,0.00,CLR,,0.00,WeatherDisplay:10.37,2013-04-24 11:52:00,
2013-04-24 07:57:00,42.4,38.5,29.96,SSE,158,0.0,0.0,86,0.00,CLR,,0.00,WeatherDisplay:10.37,2013-04-24 11:57:00,
2013-04-24 08:02:00,42.8,38.6,29.96,NW,315,1.1,1.1,85,0.00,CLR,,0.00,WeatherDisplay:10.37,2013-04-24 12:02:00,
2013-04-24 08:07:00,43.2,39.0,29.96,ENE,68,0.0,0.0,85,0.00,CLR,,0.00,WeatherDisplay:10.37,2013-04-24 12:07:00,
2013-04-24 08:12:00,43.5,39.0,29.96,NE,45,0.0,0.0,84,0.00,CLR,,0.00,WeatherDisplay:10.37,2013-04-24 12:12:00,
2013-04-24 08:17:00,43.7,39.2,29.96,West,270,0.0,0.0,84,0.00,CLR,,0.00,WeatherDisplay:10.37,2013-04-24 12:17:00,
2013-04-24 08:22:00,44.1,39.2,29.95,SSW,202,0.2,0.2,83,0.00,CLR,,0.00,WeatherDisplay:10.37,2013-04-24 12:22:00,
2013-04-24 08:27:00,44.4,39.6,29.95,SSW,202,0.0,0.0,83,0.00,CLR,,0.00,WeatherDisplay:10.37,2013-04-24 12:27:00,
2013-04-24 08:32:00,44.8,39.9,29.95,SW,225,0.0,0.0,83,0.00,CLR,,0.00,WeatherDisplay:10.37,2013-04-24 12:32:00,
2013-04-24 08:37:00,45.1,40.0,29.95,SE,135,1.1,1.1,82,0.00,CLR,,0.00,WeatherDisplay:10.37,2013-04-24 12:37:00,
2013-04-24 08:42:00,45.7,40.5,29.95,ESE,112,1.1,0.0,82,0.00,CLR,,0.00,WeatherDisplay:10.37,2013-04-24 12:42:00,
2013-04-24 08:47:00,45.9,40.4,29.95,ENE,68,0.0,0.0,81,0.00,CLR,,0.00,WeatherDisplay:10.37,2013-04-24 12:47:00,
2013-04-24 08:52:00,46.4,40.6,29.95,West,270,1.1,1.1,80,0.00,CLR,,0.00,WeatherDisplay:10.37,2013-04-24 12:52:00,
2013-04-24 08:57:00,46.8,40.9,29.95,WSW,248,1.1,1.1,80,0.00,CLR,,0.00,WeatherDisplay:10.37,2013-04-24 12:57:00,
2013-04-24 09:02:00,47.3,41.4,29.94,WSW,248,1.1,1.1,80,0.00,CLR,,0.00,WeatherDisplay:10.37,2013-04-24 13:02:00,
2013-04-24 09:07:00,47.5,41.3,29.94,SW,225,0.5,0.5,79,0.00,CLR,,0.00,WeatherDisplay:10.37,2013-04-24 13:07:00,
2013-04-24 09:12:00,48.2,41.7,29.94,SE,135,1.1,1.1,78,0.00,CLR,,0.00,WeatherDisplay:10.37,2013-04-24 13:12:00,
2013-04-24 09:17:00,48.6,42.0,29.94,West,270,2.3,2.3,78,0.00,CLR,,0.00,WeatherDisplay:10.37,2013-04-24 13:17:00,
2013-04-24 09:22:00,48.9,42.4,29.93,SSW,202,0.5,0.5,78,0.00,CLR,,0.00,WeatherDisplay:10.37,2013-04-24 13:22:00,
2013-04-24 09:27:00,49.1,42.2,29.93,North,0,0.5,0.5,77,0.00,CLR,,0.00,WeatherDisplay:10.37,2013-04-24 13:27:00,
2013-04-24 09:32:00,49.8,42.9,29.93,SSW,202,2.4,2.4,77,0.00,CLR,,0.00,WeatherDisplay:10.37,2013-04-24 13:32:00,
2013-04-24 09:37:00,50.0,42.7,29.93,SE,135,0.5,0.5,76,0.00,CLR,,0.00,WeatherDisplay:10.37,2013-04-24 13:37:00,
2013-04-24 09:42:00,50.4,43.1,29.93,SSW,202,1.6,1.6,76,0.00,CLR,,0.00,WeatherDisplay:10.37,2013-04-24 13:42:00,
2013-04-24 09:47:00,50.9,43.3,29.93,SE,135,1.1,0.0,75,0.00,CLR,,0.00,WeatherDisplay:10.37,2013-04-24 13:47:00,
2013-04-24 09:52:00,51.4,43.8,29.93,West,270,2.3,2.3,75,0.00,CLR,,0.00,WeatherDisplay:10.37,2013-04-24 13:52:00,
2013-04-24 09:57:00,52.2,43.4,29.93,NW,315,2.3,2.3,72,0.00,CLR,,0.00,WeatherDisplay:10.37,2013-04-24 13:57:00,
2013-04-24 10:02:00,52.3,43.2,29.93,West,270,1.1,1.6,71,0.00,CLR,,0.00,WeatherDisplay:10.37,2013-04-24 14:02:00,
2013-04-24 10:07:00,52.7,43.9,29.93,WNW,292,2.3,2.3,72,0.00,CLR,,0.00,WeatherDisplay:10.37,2013-04-24 14:07:00,
2013-04-24 10:12:00,52.9,44.1,29.93,WSW,248,1.1,1.1,72,0.00,CLR,,0.00,WeatherDisplay:10.37,2013-04-24 14:12:00,
2013-04-24 10:17:00,53.1,44.3,29.92,ESE,112,0.0,0.5,72,0.00,CLR,,0.00,WeatherDisplay:10.37,2013-04-24 14:17:00,
2013-04-24 10:22:00,53.2,44.1,29.92,WSW,248,2.9,2.9,71,0.00,CLR,,0.00,WeatherDisplay:10.37,2013-04-24 14:22:00,
2013-04-24 10:27:00,54.0,44.4,29.92,SSE,158,2.3,2.3,70,0.00,CLR,,0.00,WeatherDisplay:10.37,2013-04-24 14:27:00,
2013-04-24 10:32:00,54.3,44.7,29.91,WSW,248,3.5,3.5,70,0.00,CLR,,0.00,WeatherDisplay:10.37,2013-04-24 14:32:00,
2013-04-24 10:37:00,54.7,45.1,29.91,West,270,1.1,1.4,70,0.00,CLR,,0.00,WeatherDisplay:10.37,2013-04-24 14:37:00,
2013-04-24 10:42:00,55.0,45.1,29.91,SE,135,2.3,2.4,69,0.00,CLR,,0.00,WeatherDisplay:10.37,2013-04-24 14:42:00,
2013-04-24 10:47:00,55.8,45.0,29.91,SSW,202,1.1,1.1,67,0.00,CLR,,0.00,WeatherDisplay:10.37,2013-04-24 14:47:00,
2013-04-24 10:52:00,56.1,46.1,29.91,ESE,112,3.5,3.5,69,0.00,CLR,,0.00,WeatherDisplay:10.37,2013-04-24 14:52:00,
2013-04-24 10:57:00,56.7,46.2,29.91,South,180,3.5,3.8,68,0.00,CLR,,0.00,WeatherDisplay:10.37,2013-04-24 14:57:00,
2013-04-24 11:02:00,57.0,45.8,29.91,WSW,248,2.4,2.4,66,0.00,CLR,,0.00,WeatherDisplay:10.37,2013-04-24 15:02:00,
2013-04-24 11:09:00,57.4,46.1,29.90,South,180,2.3,2.3,66,0.00,CLR,,0.00,WeatherDisplay:10.37,2013-04-24 15:09:00,
2013-04-24 11:14:00,57.9,46.6,29.90,WSW,248,5.8,5.8,66,0.00,CLR,,0.00,WeatherDisplay:10.37,2013-04-24 15:14:00,
2013-04-24 11:19:00,58.5,46.3,29.90,NNW,338,1.1,1.1,64,0.00,CLR,,0.00,WeatherDisplay:10.37,2013-04-24 15:19:00,
2013-04-24 11:24:00,59.0,46.8,29.89,WSW,248,3.1,3.1,64,0.00,CLR,,0.00,WeatherDisplay:10.37,2013-04-24 15:24:00,
2013-04-24 11:29:00,59.5,47.3,29.89,SSE,158,2.3,2.3,64,0.00,CLR,,0.00,WeatherDisplay:10.37,2013-04-24 15:29:00,
2013-04-24 11:34:00,59.7,47.5,29.89,SW,225,4.7,4.7,64,0.00,CLR,,0.00,WeatherDisplay:10.37,2013-04-24 15:34:00,
2013-04-24 11:39:00,60.1,47.9,29.88,WSW,248,2.3,2.3,64,0.00,CLR,,0.00,WeatherDisplay:10.37,2013-04-24 15:39:00,
2013-04-24 11:44:00,60.6,48.4,29.88,SSW,202,2.4,2.4,64,0.00,CLR,,0.00,WeatherDisplay:10.37,2013-04-24 15:44:00,
2013-04-24 11:49:00,61.0,48.3,29.87,ESE,112,4.6,4.6,63,0.00,CLR,,0.00,WeatherDisplay:10.37,2013-04-24 15:49:00,
2013-04-24 11:54:00,61.5,47.9,29.87,South,180,5.9,5.9,61,0.00,CLR,,0.00,WeatherDisplay:10.37,2013-04-24 15:54:00,
2013-04-24 11:59:00,61.9,47.8,29.87,WSW,248,4.6,4.6,60,0.00,CLR,,0.00,WeatherDisplay:10.37,2013-04-24 15:59:00,
2013-04-24 12:04:00,62.1,48.0,29.86,SW,225,3.5,3.5,60,0.00,CLR,,0.00,WeatherDisplay:10.37,2013-04-24 16:04:00,
2013-04-24 12:09:00,62.4,48.3,29.86,SW,225,4.6,4.6,60,0.00,CLR,,0.00,WeatherDisplay:10.37,2013-04-24 16:09:00,
2013-04-24 12:14:00,62.8,47.8,29.86,ESE,112,4.7,4.7,58,0.00,CLR,,0.00,WeatherDisplay:10.37,2013-04-24 16:14:00,
2013-04-24 12:19:00,63.0,48.4,29.85,ESE,112,3.5,3.5,59,0.00,CLR,,0.00,WeatherDisplay:10.37,2013-04-24 16:19:00,
2013-04-24 12:24:00,63.3,48.7,29.85,SW,225,3.5,3.5,59,0.00,CLR,,0.00,WeatherDisplay:10.37,2013-04-24 16:24:00,
2013-04-24 12:29:00,63.9,49.2,29.85,SSE,158,3.5,3.5,59,0.00,CLR,,0.00,WeatherDisplay:10.37,2013-04-24 16:29:00,
2013-04-24 12:34:00,64.4,48.8,29.85,West,270,2.6,2.6,57,0.00,CLR,,0.00,WeatherDisplay:10.37,2013-04-24 16:34:00,
2013-04-24 12:39:00,64.4,49.3,29.84,SW,225,2.3,2.3,58,0.00,CLR,,0.00,WeatherDisplay:10.37,2013-04-24 16:39:00,
2013-04-24 12:44:00,64.9,49.3,29.84,SSW,202,4.7,4.7,57,0.00,CLR,,0.00,WeatherDisplay:10.37,2013-04-24 16:44:00,
2013-04-24 12:49:00,65.1,49.5,29.83,West,270,2.3,2.3,57,0.00,CLR,,0.00,WeatherDisplay:10.37,2013-04-24 16:49:00,
2013-04-24 12:54:00,65.7,49.0,29.83,SW,225,2.3,2.3,55,0.00,CLR,,0.00,WeatherDisplay:10.37,2013-04-24 16:54:00,
2013-04-24 12:59:00,65.8,49.2,29.83,South,180,2.6,2.6,55,0.00,CLR,,0.00,WeatherDisplay:10.37,2013-04-24 16:59:00,
2013-04-24 13:04:00,66.2,49.1,29.83,West,270,2.3,2.3,54,0.00,CLR,,0.00,WeatherDisplay:10.37,2013-04-24 17:04:00,
2013-04-24 13:09:00,66.6,49.9,29.82,WSW,248,4.6,4.6,55,0.00,CLR,,0.00,WeatherDisplay:10.37,2013-04-24 17:09:00,
2013-04-24 13:14:00,66.9,49.7,29.82,SSW,202,3.8,3.8,54,0.00,CLR,,0.00,WeatherDisplay:10.37,2013-04-24 17:14:00,
2013-04-24 13:19:00,67.1,49.9,29.82,SSW,202,2.9,2.9,54,0.00,CLR,,0.00,WeatherDisplay:10.37,2013-04-24 17:19:00,
2013-04-24 13:24:00,67.1,49.9,29.81,South,180,2.9,2.9,54,0.00,CLR,,0.00,WeatherDisplay:10.37,2013-04-24 17:24:00,
2013-04-24 13:29:00,67.5,50.2,29.81,West,270,4.6,4.6,54,0.00,CLR,,0.00,WeatherDisplay:10.37,2013-04-24 17:29:00,
2013-04-24 13:34:00,67.8,49.5,29.81,West,270,6.9,6.9,52,0.00,CLR,,0.00,WeatherDisplay:10.37,2013-04-24 17:34:00,
2013-04-24 13:39:00,68.0,49.7,29.81,West,270,3.8,3.8,52,0.00,CLR,,0.00,WeatherDisplay:10.37,2013-04-24 17:39:00,
2013-04-24 13:44:00,68.2,50.4,29.81,South,180,2.4,2.4,53,0.00,CLR,,0.00,WeatherDisplay:10.37,2013-04-24 17:44:00,
2013-04-24 13:49:00,68.4,50.6,29.80,SW,225,4.6,4.6,53,0.00,CLR,,0.00,WeatherDisplay:10.37,2013-04-24 17:49:00,
2013-04-24 13:54:00,68.7,50.9,29.80,WSW,248,5.8,5.8,53,0.00,CLR,,0.00,WeatherDisplay:10.37,2013-04-24 17:54:00,
2013-04-24 13:59:00,69.1,51.2,29.81,SE,135,1.6,1.6,53,0.00,CLR,,0.00,WeatherDisplay:10.37,2013-04-24 17:59:00,
2013-04-24 14:04:00,69.1,51.2,29.80,SSW,202,3.5,3.5,53,0.00,CLR,,0.00,WeatherDisplay:10.37,2013-04-24 18:04:00,
2013-04-24 14:09:00,69.1,50.2,29.80,West,270,5.8,5.8,51,0.00,CLR,,0.00,WeatherDisplay:10.37,2013-04-24 18:09:00,
2013-04-24 14:14:00,69.1,50.7,29.80,SSW,202,4.6,4.6,52,0.00,CLR,,0.00,WeatherDisplay:10.37,2013-04-24 18:14:00,
2013-04-24 14:19:00,69.3,50.9,29.80,WNW,292,3.5,3.5,52,0.00,CLR,,0.00,WeatherDisplay:10.37,2013-04-24 18:19:00,
2013-04-24 14:24:00,69.1,50.7,29.80,East,90,2.3,2.3,52,0.00,CLR,,0.00,WeatherDisplay:10.37,2013-04-24 18:24:00,
2013-04-24 14:29:00,68.9,50.0,29.80,SE,135,3.5,3.6,51,0.00,CLR,,0.00,WeatherDisplay:10.37,2013-04-24 18:29:00,
2013-04-24 14:34:00,69.1,51.2,29.79,South,180,4.6,4.6,53,0.00,CLR,,0.00,WeatherDisplay:10.37,2013-04-24 18:34:00,
2013-04-24 14:39:00,69.3,50.9,29.78,SSW,202,2.3,2.3,52,0.00,CLR,,0.00,WeatherDisplay:10.37,2013-04-24 18:39:00,
2013-04-24 14:44:00,69.4,51.0,29.78,NW,315,3.5,3.5,52,0.00,CLR,,0.00,WeatherDisplay:10.37,2013-04-24 18:44:00,
2013-04-24 14:49:00,69.8,51.9,29.78,South,180,1.6,1.6,53,0.00,CLR,,0.00,WeatherDisplay:10.37,2013-04-24 18:49:00,
2013-04-24 14:54:00,70.2,51.7,29.78,West,270,2.9,2.9,52,0.00,CLR,,0.00,WeatherDisplay:10.37,2013-04-24 18:54:00,
2013-04-24 14:59:00,70.2,51.7,29.77,SSW,202,2.9,2.9,52,0.00,CLR,,0.00,WeatherDisplay:10.37,2013-04-24 18:59:00,
2013-04-24 15:04:00,70.3,52.4,29.77,West,270,2.3,2.4,53,0.00,CLR,,0.00,WeatherDisplay:10.37,2013-04-24 19:04:00,
2013-04-24 15:09:00,70.5,52.0,29.77,SW,225,4.6,4.6,52,0.00,CLR,,0.00,WeatherDisplay:10.37,2013-04-24 19:09:00,
2013-04-24 15:14:00,70.9,52.4,29.76,WSW,248,4.6,4.6,52,0.00,CLR,,0.00,WeatherDisplay:10.37,2013-04-24 19:14:00,
2013-04-24 15:19:00,70.9,52.4,29.76,ESE,112,3.5,3.5,52,0.00,CLR,,0.00,WeatherDisplay:10.37,2013-04-24 19:19:00,
2013-04-24 15:24:00,70.9,52.4,29.76,West,270,2.3,2.6,52,0.00,CLR,,0.00,WeatherDisplay:10.37,2013-04-24 19:24:00,
2013-04-24 15:29:00,70.7,52.7,29.76,East,90,3.5,3.5,53,0.00,CLR,,0.00,WeatherDisplay:10.37,2013-04-24 19:29:00,
2013-04-24 15:34:00,70.5,52.0,29.75,NNE,22,1.1,1.1,52,0.00,CLR,,0.00,WeatherDisplay:10.37,2013-04-24 19:34:00,
2013-04-24 15:39:00,70.2,52.2,29.75,East,90,0.5,0.5,53,0.00,CLR,,0.00,WeatherDisplay:10.37,2013-04-24 19:39:00,
2013-04-24 15:44:00,70.2,52.2,29.75,ESE,112,2.3,2.3,53,0.00,CLR,,0.00,WeatherDisplay:10.37,2013-04-24 19:44:00,
2013-04-24 15:49:00,70.2,52.7,29.76,ENE,68,1.1,1.1,54,0.00,CLR,,0.00,WeatherDisplay:10.37,2013-04-24 19:49:00,
2013-04-24 15:54:00,69.8,51.9,29.75,SSW,202,1.1,1.1,53,0.00,CLR,,0.00,WeatherDisplay:10.37,2013-04-24 19:54:00,
2013-04-24 15:59:00,69.6,51.7,29.75,East,90,2.4,2.4,53,0.00,CLR,,0.00,WeatherDisplay:10.37,2013-04-24 19:59:00,
2013-04-24 16:04:00,69.4,52.1,29.75,SE,135,1.1,1.1,54,0.00,CLR,,0.00,WeatherDisplay:10.37,2013-04-24 20:04:00,
2013-04-24 16:09:00,69.4,52.1,29.75,East,90,2.3,2.3,54,0.00,CLR,,0.00,WeatherDisplay:10.37,2013-04-24 20:09:00,
2013-04-24 16:14:00,69.6,52.2,29.75,East,90,2.4,2.4,54,0.00,CLR,,0.00,WeatherDisplay:10.37,2013-04-24 20:14:00,
2013-04-24 16:19:00,69.6,52.2,29.75,WSW,248,2.3,2.3,54,0.00,CLR,,0.00,WeatherDisplay:10.37,2013-04-24 20:19:00,
2013-04-24 16:24:00,69.4,52.1,29.75,East,90,0.0,0.5,54,0.00,CLR,,0.00,WeatherDisplay:10.37,2013-04-24 20:24:00,
2013-04-24 16:29:00,69.4,52.6,29.75,SW,225,1.1,1.1,55,0.00,CLR,,0.00,WeatherDisplay:10.37,2013-04-24 20:29:00,
2013-04-24 16:34:00,69.3,51.9,29.75,SW,225,1.1,1.1,54,0.00,CLR,,0.00,WeatherDisplay:10.37,2013-04-24 20:34:00,
2013-04-24 16:39:00,69.3,52.4,29.75,SSW,202,2.3,2.3,55,0.00,CLR,,0.00,WeatherDisplay:10.37,2013-04-24 20:39:00,
2013-04-24 16:44:00,69.1,51.7,29.75,SE,135,2.3,2.3,54,0.00,CLR,,0.00,WeatherDisplay:10.37,2013-04-24 20:44:00,
2013-04-24 16:49:00,69.1,52.2,29.75,NE,45,2.3,2.4,55,0.00,CLR,,0.00,WeatherDisplay:10.37,2013-04-24 20:49:00,
2013-04-24 16:54:00,68.9,51.6,29.74,East,90,2.3,2.3,54,0.00,CLR,,0.00,WeatherDisplay:10.37,2013-04-24 20:54:00,
2013-04-24 16:59:00,68.7,51.9,29.74,ENE,68,2.3,2.3,55,0.00,CLR,,0.00,WeatherDisplay:10.37,2013-04-24 20:59:00,
2013-04-24 17:04:00,68.5,51.7,29.75,ENE,68,2.4,2.4,55,0.00,CLR,,0.00,WeatherDisplay:10.37,2013-04-24 21:04:00,
2013-04-24 17:09:00,68.4,52.0,29.74,ESE,112,0.5,0.5,56,0.00,CLR,,0.00,WeatherDisplay:10.37,2013-04-24 21:09:00,
2013-04-24 17:14:00,68.0,51.7,29.75,ESE,112,4.6,4.6,56,0.00,CLR,,0.00,WeatherDisplay:10.37,2013-04-24 21:14:00,
2013-04-24 17:19:00,67.3,51.0,29.75,East,90,1.1,1.1,56,0.00,CLR,,0.00,WeatherDisplay:10.37,2013-04-24 21:19:00,
2013-04-24 17:24:00,66.7,51.0,29.74,North,0,1.1,1.1,57,0.00,CLR,,0.00,WeatherDisplay:10.37,2013-04-24 21:24:00,
2013-04-24 17:29:00,66.2,51.0,29.75,West,270,1.1,1.1,58,0.00,CLR,,0.00,WeatherDisplay:10.37,2013-04-24 21:29:00,
2013-04-24 17:34:00,65.8,50.6,29.74,East,90,1.6,1.6,58,0.00,CLR,,0.00,WeatherDisplay:10.37,2013-04-24 21:34:00,
2013-04-24 17:39:00,65.3,50.6,29.74,East,90,2.3,2.3,59,0.00,CLR,,0.00,WeatherDisplay:10.37,2013-04-24 21:39:00,
2013-04-24 17:44:00,64.4,50.2,29.74,NNE,22,1.1,1.1,60,0.00,CLR,,0.00,WeatherDisplay:10.37,2013-04-24 21:44:00,
2013-04-24 17:49:00,64.2,50.5,29.74,ENE,68,2.3,2.3,61,0.00,CLR,,0.00,WeatherDisplay:10.37,2013-04-24 21:49:00,
2013-04-24 17:54:00,64.0,50.3,29.74,ENE,68,1.1,1.4,61,0.00,CLR,,0.00,WeatherDisplay:10.37,2013-04-24 21:54:00,
2013-04-24 17:59:00,63.3,50.1,29.73,ESE,112,1.1,1.4,62,0.00,CLR,,0.00,WeatherDisplay:10.37,2013-04-24 21:59:00,
2013-04-24 18:04:00,63.0,49.7,29.73,SSE,158,2.3,2.3,62,0.00,CLR,,0.00,WeatherDisplay:10.37,2013-04-24 22:04:00,
2013-04-24 18:09:00,62.6,49.8,29.73,ENE,68,0.5,0.5,63,0.00,CLR,,0.00,WeatherDisplay:10.37,2013-04-24 22:09:00,
2013-04-24 18:14:00,62.2,49.9,29.72,SSW,202,0.5,0.5,64,0.00,CLR,,0.00,WeatherDisplay:10.37,2013-04-24 22:14:00,
2013-04-24 18:19:00,61.3,49.5,29.72,ESE,112,1.1,1.1,65,0.00,CLR,,0.00,WeatherDisplay:10.37,2013-04-24 22:19:00,
2013-04-24 18:24:00,61.2,49.3,29.72,ESE,112,2.3,2.3,65,0.00,CLR,,0.00,WeatherDisplay:10.37,2013-04-24 22:24:00,
2013-04-24 18:29:00,60.4,49.0,29.72,East,90,1.1,1.1,66,0.00,CLR,,0.00,WeatherDisplay:10.37,2013-04-24 22:29:00,
2013-04-24 18:34:00,59.7,48.7,29.72,North,0,1.1,1.1,67,0.00,CLR,,0.00,WeatherDisplay:10.37,2013-04-24 22:34:00,
2013-04-24 18:39:00,59.4,48.4,29.72,ENE,68,1.1,1.1,67,0.00,CLR,,0.00,WeatherDisplay:10.37,2013-04-24 22:39:00,
2013-04-24 18:44:00,59.0,48.8,29.72,SSE,158,2.3,2.3,69,0.00,CLR,,0.00,WeatherDisplay:10.37,2013-04-24 22:44:00,
2013-04-24 18:49:00,58.6,48.1,29.72,ESE,112,2.4,2.4,68,0.00,CLR,,0.00,WeatherDisplay:10.37,2013-04-24 22:49:00,
2013-04-24 18:54:00,58.5,48.3,29.72,West,270,1.1,1.1,69,0.00,CLR,,0.00,WeatherDisplay:10.37,2013-04-24 22:54:00,
2013-04-24 18:59:00,58.1,48.0,29.72,West,270,1.1,1.1,69,0.00,CLR,,0.00,WeatherDisplay:10.37,2013-04-24 22:59:00,
2013-04-24 19:04:00,57.9,47.8,29.72,WSW,248,0.5,0.5,69,0.00,CLR,,0.00,WeatherDisplay:10.37,2013-04-24 23:04:00,
2013-04-24 19:09:00,57.6,47.8,29.73,East,90,1.1,0.0,70,0.00,CLR,,0.00,WeatherDisplay:10.37,2013-04-24 23:09:00,
2013-04-24 19:14:00,57.2,47.9,29.73,SE,135,2.0,2.0,71,0.00,CLR,,0.00,WeatherDisplay:10.37,2013-04-24 23:14:00,
2013-04-24 19:19:00,57.0,47.7,29.73,NNE,22,1.1,1.1,71,0.00,CLR,,0.00,WeatherDisplay:10.37,2013-04-24 23:19:00,
2013-04-24 19:24:00,56.5,47.6,29.72,ESE,112,0.9,0.9,72,0.00,CLR,,0.00,WeatherDisplay:10.37,2013-04-24 23:24:00,
2013-04-24 19:29:00,56.1,47.6,29.73,SE,135,0.2,0.2,73,0.00,CLR,,0.00,WeatherDisplay:10.37,2013-04-24 23:29:00,
2013-04-24 19:34:00,55.9,47.4,29.74,South,180,0.0,0.0,73,0.00,CLR,,0.00,WeatherDisplay:10.37,2013-04-24 23:34:00,
2013-04-24 19:39:00,55.8,47.2,29.74,ESE,112,1.1,1.1,73,0.00,CLR,,0.00,WeatherDisplay:10.37,2013-04-24 23:39:00,
2013-04-24 19:44:00,55.6,47.1,29.74,ENE,68,0.5,0.5,73,0.00,CLR,,0.00,WeatherDisplay:10.37,2013-04-24 23:44:00,
2013-04-24 19:49:00,55.4,47.2,29.75,SSE,158,1.1,1.1,74,0.00,CLR,,0.00,WeatherDisplay:10.37,2013-04-24 23:49:00,
2013-04-24 19:54:00,55.4,47.2,29.75,West,270,0.0,0.0,74,0.00,CLR,,0.00,WeatherDisplay:10.37,2013-04-24 23:54:00,
2013-04-24 19:59:00,55.2,47.1,29.75,ESE,112,0.0,0.0,74,0.00,CLR,,0.00,WeatherDisplay:10.37,2013-04-24 23:59:00,
2013-04-24 20:04:00,55.0,46.9,29.75,ENE,68,0.2,0.2,74,0.00,CLR,,0.00,WeatherDisplay:10.37,2013-04-25 00:04:00,
2013-04-24 20:09:00,55.2,47.4,29.75,SSE,158,0.0,0.5,75,0.00,CLR,,0.00,WeatherDisplay:10.37,2013-04-25 00:09:00,
2013-04-24 20:14:00,55.0,47.3,29.75,SE,135,0.5,0.5,75,0.00,CLR,,0.00,WeatherDisplay:10.37,2013-04-25 00:14:00,
2013-04-24 20:19:00,55.0,47.6,29.75,ESE,112,1.1,1.1,76,0.00,CLR,,0.00,WeatherDisplay:10.37,2013-04-25 00:19:00,
2013-04-24 20:24:00,55.0,47.3,29.75,WSW,248,0.0,0.5,75,0.00,CLR,,0.00,WeatherDisplay:10.37,2013-04-25 00:24:00,
2013-04-24 20:29:00,55.0,47.6,29.76,ESE,112,0.0,0.0,76,0.00,CLR,,0.00,WeatherDisplay:10.37,2013-04-25 00:29:00,
2013-04-24 20:34:00,55.0,47.6,29.75,ENE,68,0.2,0.2,76,0.00,CLR,,0.00,WeatherDisplay:10.37,2013-04-25 00:34:00,
2013-04-24 20:39:00,55.0,47.6,29.76,ESE,112,1.1,0.0,76,0.00,CLR,,0.00,WeatherDisplay:10.37,2013-04-25 00:39:00,
2013-04-24 20:44:00,55.0,47.6,29.76,East,90,0.0,0.0,76,0.00,CLR,,0.00,WeatherDisplay:10.37,2013-04-25 00:44:00,
2013-04-24 20:49:00,55.0,47.6,29.76,ESE,112,0.0,0.0,76,0.00,CLR,,0.00,WeatherDisplay:10.37,2013-04-25 00:49:00,
2013-04-24 20:54:00,55.2,48.1,29.75,ESE,112,0.0,0.0,77,0.00,CLR,,0.00,WeatherDisplay:10.37,2013-04-25 00:54:00,
2013-04-24 20:59:00,55.0,48.0,29.76,SE,135,0.5,0.5,77,0.00,CLR,,0.00,WeatherDisplay:10.37,2013-04-25 00:59:00,
2013-04-24 21:04:00,55.2,48.1,29.75,SW,225,2.3,2.3,77,0.00,CLR,,0.00,WeatherDisplay:10.37,2013-04-25 01:04:00,
2013-04-24 21:09:00,55.2,48.1,29.76,NW,315,0.0,0.0,77,0.00,CLR,,0.00,WeatherDisplay:10.37,2013-04-25 01:09:00,
2013-04-24 21:14:00,55.2,48.1,29.76,South,180,1.1,1.1,77,0.00,CLR,,0.00,WeatherDisplay:10.37,2013-04-25 01:14:00,
2013-04-24 21:19:00,55.2,48.1,29.76,SW,225,0.0,0.0,77,0.00,CLR,,0.00,WeatherDisplay:10.37,2013-04-25 01:19:00,
2013-04-24 21:24:00,55.2,48.1,29.76,East,90,0.0,0.0,77,0.00,CLR,,0.00,WeatherDisplay:10.37,2013-04-25 01:24:00,
2013-04-24 21:29:00,55.2,48.1,29.77,West,270,0.0,0.0,77,0.00,CLR,,0.00,WeatherDisplay:10.37,2013-04-25 01:29:00,
2013-04-24 21:34:00,55.4,48.3,29.77,East,90,0.0,0.0,77,0.00,CLR,,0.00,WeatherDisplay:10.37,2013-04-25 01:34:00,
2013-04-24 21:39:00,55.2,48.1,29.76,NNE,22,0.5,0.5,77,0.00,CLR,,0.00,WeatherDisplay:10.37,2013-04-25 01:39:00,
2013-04-24 21:44:00,55.2,48.5,29.77,ESE,112,0.9,0.9,78,0.00,CLR,,0.00,WeatherDisplay:10.37,2013-04-25 01:44:00,
2013-04-24 21:49:00,55.2,48.5,29.77,East,90,0.5,0.5,78,0.00,CLR,,0.00,WeatherDisplay:10.37,2013-04-25 01:49:00,
2013-04-24 21:54:00,55.2,48.5,29.77,SE,135,0.0,0.0,78,0.00,CLR,,0.00,WeatherDisplay:10.37,2013-04-25 01:54:00,
2013-04-24 21:59:00,55.2,48.5,29.76,East,90,0.0,0.0,78,0.00,CLR,,0.00,WeatherDisplay:10.37,2013-04-25 01:59:00,
2013-04-24 22:04:00,55.2,48.5,29.76,ENE,68,0.5,0.5,78,0.00,CLR,,0.00,WeatherDisplay:10.37,2013-04-25 02:04:00,
2013-04-24 22:09:00,55.2,48.5,29.76,ENE,68,0.0,0.0,78,0.00,CLR,,0.00,WeatherDisplay:10.37,2013-04-25 02:09:00,
2013-04-24 22:14:00,55.0,48.3,29.76,East,90,0.0,0.0,78,0.00,CLR,,0.00,WeatherDisplay:10.37,2013-04-25 02:14:00,
2013-04-24 22:19:00,55.0,48.3,29.77,North,0,0.0,0.0,78,0.00,CLR,,0.00,WeatherDisplay:10.37,2013-04-25 02:19:00,
2013-04-24 22:24:00,55.0,48.3,29.77,ESE,112,0.0,0.0,78,0.00,CLR,,0.00,WeatherDisplay:10.37,2013-04-25 02:24:00,
2013-04-24 22:29:00,55.0,48.3,29.76,ESE,112,0.0,0.0,78,0.00,CLR,,0.00,WeatherDisplay:10.37,2013-04-25 02:29:00,
2013-04-24 22:34:00,55.2,48.5,29.76,SE,135,2.4,2.4,78,0.00,CLR,,0.00,WeatherDisplay:10.37,2013-04-25 02:34:00,
2013-04-24 22:39:00,55.8,49.7,29.76,South,180,2.6,2.6,80,0.00,CLR,,0.00,WeatherDisplay:10.37,2013-04-25 02:39:00,
2013-04-24 22:44:00,56.3,50.2,29.76,WSW,248,2.3,2.3,80,0.00,CLR,,0.00,WeatherDisplay:10.37,2013-04-25 02:44:00,
2013-04-24 22:49:00,56.7,50.2,29.77,WNW,292,1.1,1.1,79,0.00,CLR,,0.00,WeatherDisplay:10.37,2013-04-25 02:49:00,
2013-04-24 22:54:00,56.8,50.4,29.76,SSW,202,2.9,2.9,79,0.00,CLR,,0.00,WeatherDisplay:10.37,2013-04-25 02:54:00,
2013-04-24 22:59:00,57.0,50.6,29.76,WSW,248,0.0,0.5,79,0.00,CLR,,0.00,WeatherDisplay:10.37,2013-04-25 02:59:00,
2013-04-24 23:04:00,57.2,50.7,29.76,ESE,112,3.5,3.5,79,0.00,CLR,,0.00,WeatherDisplay:10.37,2013-04-25 03:04:00,
2013-04-24 23:09:00,57.2,50.4,29.76,SSW,202,1.8,1.8,78,0.00,CLR,,0.00,WeatherDisplay:10.37,2013-04-25 03:09:00,
2013-04-24 23:14:00,57.2,50.7,29.76,SSE,158,1.1,1.1,79,0.00,CLR,,0.00,WeatherDisplay:10.37,2013-04-25 03:14:00,
2013-04-24 23:19:00,57.2,50.7,29.76,WSW,248,2.3,2.3,79,0.00,CLR,,0.00,WeatherDisplay:10.37,2013-04-25 03:19:00,
2013-04-24 23:24:00,57.4,50.6,29.75,ENE,68,1.1,0.0,78,0.00,CLR,,0.00,WeatherDisplay:10.37,2013-04-25 03:24:00,
2013-04-24 23:29:00,57.4,50.9,29.75,ESE,112,3.5,3.5,79,0.00,CLR,,0.00,WeatherDisplay:10.37,2013-04-25 03:29:00,
2013-04-24 23:34:00,57.6,51.1,29.75,South,180,1.1,1.1,79,0.00,CLR,,0.00,WeatherDisplay:10.37,2013-04-25 03:34:00,
2013-04-24 23:39:00,57.6,51.1,29.75,WSW,248,1.1,1.1,79,0.00,CLR,,0.00,WeatherDisplay:10.37,2013-04-25 03:39:00,
2013-04-24 23:44:00,57.6,50.8,29.75,SSE,158,2.3,2.4,78,0.00,CLR,,0.00,WeatherDisplay:10.37,2013-04-25 03:44:00,
2013-04-24 23:49:00,57.7,51.3,29.75,ESE,112,2.9,2.9,79,0.00,CLR,,0.00,WeatherDisplay:10.37,2013-04-25 03:49:00,
2013-04-24 23:54:00,57.6,51.1,29.76,WNW,292,2.3,2.3,79,0.00,CLR,,0.00,WeatherDisplay:10.37,2013-04-25 03:54:00,
2013-04-24 23:59:00,57.7,51.3,29.75,SSE,158,3.5,3.5,79,0.00,CLR,,0.00,WeatherDisplay:10.37,2013-04-25 03:59:00,